Location: Unspecified
(48.7971°N, 123.6320°W)
Time: 13:11:08
(UTC-07:00)

Cosmos 1674 - Visible Passes

Search period start: 24 June 2019 00:00
Search period end: 04 July 2019 00:00
Orbit: 494 x 520 km, 82.5° (Epoch: 24 June)

Date Brightness Start Highest point End Pass type
(mag) Time Alt. Az. Time Alt. Az. Time Alt. Az.
24 Jun 5.7 23:29:28 10° W 23:30:56 12° WNW 23:32:24 10° NW visible
25 Jun 5.5 23:11:05 10° WSW 23:13:15 15° WNW 23:15:25 10° NNW visible
26 Jun 5.5 22:52:57 10° WSW 22:55:35 18° WNW 22:58:14 10° NNW visible
27 Jun 5.2 22:34:56 10° SW 22:37:56 22° WNW 22:40:55 10° NNW visible
28 Jun 4.8 22:17:03 10° SW 22:20:17 28° WNW 22:23:33 10° NNW visible
29 Jun 4.4 21:59:14 10° SW 22:02:40 35° WNW 22:06:07 10° N visible
